Location: Unspecified
(0.0000°N, 0.0000°E)
Time: 20:39:38
(UTC+00:00)

Transit 2A Rocket - Visible Passes

Search period start: 22 October 2021 00:00
Search period end: 01 November 2021 00:00
Orbit: 584 x 918 km, 66.7° (Epoch: 22 October)

Date Brightness Start Highest point End Pass type
(mag) Time Alt. Az. Time Alt. Az. Time Alt. Az.
22 Oct 7.0 03:45:43 10° N 03:50:42 28° ENE 03:55:23 10° SE visible
23 Oct 7.8 03:05:28 11° NE 03:07:58 14° ENE 03:10:47 10° E visible
23 Oct 5.5 04:45:29 12° NW 04:50:28 44° WSW 04:55:36 10° S visible
24 Oct 5.1 04:05:36 38° NNW 04:07:55 90° NNE 04:13:21 10° SSE visible
25 Oct 6.1 03:25:31 44° ENE 03:25:31 44° ENE 03:30:27 10° SE visible
25 Oct 6.8 05:05:31 11° W 05:07:30 13° WSW 05:10:00 10° SW visible
26 Oct 7.7 02:45:16 16° ESE 02:45:16 16° ESE 02:46:47 10° ESE visible
26 Oct 6.1 04:25:15 27° WSW 04:25:15 27° WSW 04:29:31 10° SSW visible
27 Oct 6.2 03:44:49 32° S 03:44:49 32° S 03:47:42 10° S visible
28 Oct 7.5 03:04:14 16° SSE 03:04:14 16° SSE 03:05:13 10° SSE visible
